[[{"header":{"parameterUnit":"m.s-1","parameterCategory":1,"la1":30.2991,"la2":30.254,"lo1":-89.0895,"lo2":-89.0444,"dy":0.0017,"dx":0.0017,"nx":28,"ny":28,"refTime":"2024-05-22T09:00:00:Z","depth":0,"parameterNumber":2,"parameterNumberName":"U-component_of_WINDS"},"data":[0,0,0,0,0,0,0,0,0,0,0,0,0,0,0,0,0,0,0,0,0,0,0,0,0,0,0,0,0,0,0,0,0,0,0,0,0,0,0,0,0,0,0,0,0,0,0,0,0,0,0,0,0,0,0,0,0,0,-2.4116,-2.4116,0,-2.4179,-2.4179,-2.418,-2.4169,-2.4168,-2.4167,-2.4166,-2.4231,-2.4234,-2.4236,0,0,0,0,0,0,0,0,0,0,0,0,0,-2.3987,-2.3989,-2.4115,-2.4116,-2.4117,-2.4178,-2.4179,-2.418,-2.4169,-2.4168,-2.4166,-2.4165,-2.423,-2.4233,-2.4237,0,0,0,0,0,0,0,0,0,0,0,0,0,-2.4046,-2.399,-2.4115,-2.4119,-2.412,-2.4178,-2.4179,-2.418,-2.4169,-2.4168,-2.4166,-2.4164,-2.4229,-2.4233,-2.4237,-2.4296,0,0,-2.425,-2.4252,0,0,0,0,0,0,0,0,-2.4042,-2.405,-2.4118,-2.4119,-2.412,-2.4164,-2.4158,-2.4219,-2.417,-2.4151,-2.4166,-2.4164,-2.421,-2.4216,-2.4231,-2.4299,-2.4302,-2.425,-2.4253,-2.4255,-2.4256,0,0,0,0,0,0,0,-2.4038,-2.4048,-2.414,-2.4119,-2.412,-2.4118,-2.4124,-2.4169,-2.4189,-2.4152,-2.4151,-2.4159,-2.421,-2.4227,-2.4233,-2.4303,-2.425,-2.4254,-2.4256,-2.4258,-2.4423,-2.4425,0,0,0,0,0,0,-2.4033,-2.4044,-2.4138,-2.4142,-2.4076,-2.4121,-2.4129,-2.4152,-2.4188,-2.4192,-2.416,-2.4158,-2.4221,-2.4228,-2.4235,-2.4306,-2.4255,-2.4258,-2.4261,-2.4421,-2.4423,-2.4425,0,0,0,0,0,0,-2.403,-2.4041,-2.4136,-2.4093,-2.4105,-2.4125,-2.4151,-2.4154,-2.417,-2.4195,-2.4198,-2.4174,-2.422,-2.4229,-2.4281,-2.4308,-2.426,-2.4264,-2.4419,-2.4422,-2.4424,-2.4449,0,0,0,0,0,0,-2.4026,-2.404,-2.4063,-2.4094,-2.4107,-2.4181,-2.4153,-2.4156,-2.4178,-2.4175,-2.4208,-2.4212,-2.4219,-2.4275,-2.4285,-2.4313,-2.4267,-2.4416,-2.442,-2.4423,-2.4446,-2.4453,-2.4458,0,0,0,0,0,-2.4022,-2.4068,-2.4064,-2.4075,-2.4136,-2.4182,-2.419,-2.4197,-2.418,-2.4203,-2.4218,-2.4211,-2.4304,-2.428,-2.4292,-2.4322,-2.4415,-2.4419,-2.4423,-2.4444,-2.4451,-2.4458,0,0,0,0,0,0,-2.404,-2.4072,-2.4068,-2.4125,-2.4151,-2.418,-2.4209,-2.4205,-2.4237,-2.4234,-2.4241,-2.4249,-2.4302,-2.4317,-2.429,-2.4381,-2.4357,-2.4364,-2.4369,-2.4376,-2.4382,-2.4377,-2.4271,0,0,0,0,0,-2.405,-2.4085,-2.4111,-2.4159,-2.4172,-2.4189,-2.4209,-2.4212,-2.424,-2.4251,-2.427,-2.4297,-2.4332,-2.4355,-2.4389,-2.4449,-2.4456,-2.4475,-2.4481,-2.4486,-2.4491,-2.4524,-2.4533,-2.4439,-2.4439,-2.4439,0,0,-2.4073,-2.4094,-2.4116,-2.4163,-2.4184,-2.422,-2.4198,-2.4237,-2.4264,-2.4257,-2.4306,-2.4322,-2.4353,-2.4409,-2.4434,-2.4423,-2.4519,-2.4491,-2.4495,-2.4498,-2.4529,-2.4538,-2.4546,-2.4442,-2.4441,-2.4441,0,0,-2.4131,-2.4151,-2.4193,-2.4214,-2.4245,-2.4256,-2.4266,-2.4296,-2.4306,-2.4356,-2.4351,-2.4383,-2.4444,-2.4466,-2.4485,-2.4553,-2.4547,-2.4563,-2.4595,-2.4626,-2.4634,-2.464,-2.4664,-2.4672,-2.4569,-2.4569,-2.4569,0,-2.4155,-2.4209,-2.4215,-2.4255,-2.4276,-2.4271,-2.4313,-2.4334,-2.4374,-2.4389,-2.4376,-2.4452,-2.4472,-2.4533,-2.4549,-2.4565,-2.4577,-2.4559,-2.4632,-2.4639,-2.4645,-2.4668,-2.4676,-2.4571,-2.4571,-2.457,-2.457,0,-2.4236,-2.4274,-2.4304,-2.4343,-2.4367,-2.4408,-2.4421,-2.4445,-2.4447,-2.4459,-2.451,-2.4534,-2.4573,-2.4588,-2.459,-2.4649,-2.4641,-2.463,-2.4606,-2.4655,-2.4677,-2.4686,-2.4573,-2.4573,-2.4572,-2.4572,0,0,-2.4307,-2.4349,-2.436,-2.4378,-2.4412,-2.4441,-2.4482,-2.4519,-2.454,-2.4568,-2.4603,-2.4654,-2.4644,-2.4666,-2.467,-2.4698,-2.475,-2.4684,-2.4685,-2.4695,-2.4816,-2.4824,-2.4834,-2.4746,-2.4748,-2.475,-2.4813,0,-2.4369,-2.444,-2.4447,-2.4512,-2.4546,-2.4542,-2.4578,-2.4603,-2.4615,-2.4647,-2.4661,-2.4697,-2.4681,-2.4694,-2.4722,-2.4737,-2.4774,-2.4733,-2.4778,-2.478,-2.477,-2.4845,-2.4853,-2.4912,-2.4822,-2.4823,-2.4824,0,-2.445,-2.448,-2.4547,-2.4577,-2.4591,-2.4623,-2.4658,-2.4688,-2.4717,-2.4724,-2.4748,-2.4749,-2.4791,-2.4766,-2.4825,-2.4797,-2.4816,-2.4827,-2.4829,-2.4833,-2.4805,-2.4851,-2.4932,-2.494,-2.4838,-2.4837,-2.4836,0,-2.4494,-2.4552,-2.46,-2.4615,-2.465,-2.4673,-2.4689,-2.4715,-2.4737,-2.4768,-2.4782,-2.4818,-2.4837,-2.4865,-2.4875,-2.4856,-2.4933,-2.4909,-2.494,-2.494,-2.4956,-2.4955,-2.5041,-2.4969,-2.4969,-2.4969,-2.4969,0,-2.4562,-2.4603,-2.462,-2.4649,-2.4696,-2.4704,-2.475,-2.4765,-2.4788,-2.4821,-2.482,-2.485,-2.4862,-2.4895,-2.4904,-2.4951,-2.496,-2.4967,-2.4968,-2.4966,-2.4965,-2.4978,-2.4974,-2.4971,-2.4971,-2.497,-2.497,0,-2.4619,-2.4632,-2.4684,-2.4713,-2.4721,-2.4754,-2.4779,-2.4808,-2.482,-2.4861,-2.4871,-2.489,-2.4928,-2.4942,-2.4988,-2.4994,-2.5049,-2.5047,-2.5039,-2.5039,-2.5069,-2.5066,-2.5166,-2.518,-2.51,-2.5101,-2.5101,0,-2.4661,-2.4692,-2.4725,-2.4746,-2.4763,-2.4797,-2.482,-2.4829,-2.4853,-2.4887,-2.4912,-2.495,-2.498,-2.5042,-2.506,-2.5096,-2.5095,-2.5127,-2.51,-2.5097,-2.5095,-2.5093,-2.5096,-2.5132,-2.5133,-2.5134,-2.5134,0,-2.4734,-2.4739,-2.4771,-2.4805,-2.4831,-2.4859,-2.4886,-2.4904,-2.4917,-2.4944,-2.4982,-2.5006,-2.5054,-2.5091,-2.5128,-2.5144,-2.5142,-2.5143,-2.5152,-2.515,-2.5144,-2.5147,-2.5052,-2.514,-2.514,-2.5139,-2.5139,-2.5139,-2.4784,-2.4812,-2.4839,-2.4875,-2.4896,-2.4921,-2.4949,-2.4965,-2.4997,-2.5036,-2.504,-2.5082,-2.511,-2.5158,-2.5177,-2.521,-2.5201,-2.5214,-2.5217,-2.522,-2.5222,-2.5139,-2.5216,-2.5216,-2.5216,-2.5216,-2.5216,0,-2.4857,-2.4874,-2.4907,-2.4944,-2.4972,-2.4967,-2.4996,-2.502,-2.5057,-2.5083,-2.5113,-2.5158,-2.5194,-2.5216,-2.5252,-2.5275,-2.5274,-2.5284,-2.5282,-2.5286,-2.5228,-2.5217,-2.5283,-2.5283,-2.5283,-2.5283,-2.5283,-2.5283,-2.4898,-2.4944,-2.4953,-2.501,-2.5027,-2.5067,-2.5085,-2.5108,-2.5128,-2.5178,-2.5208,-2.5222,-2.5246,-2.5284,-2.5318,-2.5323,-2.5337,-2.5347,-2.5351,-2.5297,-2.529,-2.5283,-2.5272,-2.535,-2.535,-2.5406,-2.5407,-2.5407]},{"header":{"parameterUnit":"m.s-1","parameterCategory":1,"la1":30.2991,"la2":30.254,"lo1":-89.0895,"lo2":-89.0444,"dy":0.0017,"dx":0.0017,"nx":28,"ny":28,"refTime":"2024-05-22T09:00:00:Z","depth":0,"parameterNumber":3,"parameterNumberName":"V-component_of_WINDS"},"data":[0,0,0,0,0,0,0,0,0,0,0,0,0,0,0,0,0,0,0,0,0,0,0,0,0,0,0,0,0,0,0,0,0,0,0,0,0,0,0,0,0,0,0,0,0,0,0,0,0,0,0,0,0,0,0,0,0,0,2.3822,2.3821,0,2.3796,2.3796,2.3796,2.374,2.3739,2.3738,2.3736,2.3711,2.3712,2.3712,0,0,0,0,0,0,0,0,0,0,0,0,0,2.3823,2.3824,2.3822,2.3821,2.3821,2.3796,2.3796,2.3796,2.374,2.3739,2.3737,2.3736,2.3711,2.3712,2.3712,0,0,0,0,0,0,0,0,0,0,0,0,0,2.3813,2.3824,2.3822,2.379,2.3787,2.3796,2.3796,2.3795,2.374,2.3739,2.3737,2.3735,2.3711,2.3712,2.3712,2.375,0,0,2.3714,2.3714,0,0,0,0,0,0,0,0,2.3814,2.3813,2.3795,2.3793,2.3789,2.3769,2.3787,2.378,2.3741,2.3758,2.3736,2.3734,2.3732,2.3731,2.373,2.3749,2.3748,2.3714,2.3715,2.3715,2.3715,0,0,0,0,0,0,0,2.3814,2.3814,2.3812,2.3795,2.3791,2.3778,2.3774,2.3786,2.3755,2.3757,2.3752,2.375,2.373,2.373,2.3729,2.3748,2.3714,2.3715,2.3715,2.3715,2.3796,2.3797,0,0,0,0,0,0,2.3819,2.3815,2.3812,2.3811,2.3797,2.3779,2.3775,2.3777,2.3755,2.375,2.3752,2.3748,2.3729,2.3728,2.3728,2.377,2.3715,2.3715,2.3716,2.3794,2.3796,2.3798,0,0,0,0,0,0,2.382,2.382,2.3813,2.3812,2.381,2.3781,2.3784,2.3778,2.3777,2.3751,2.3745,2.3756,2.3728,2.3727,2.3745,2.3768,2.3716,2.3716,2.3792,2.3795,2.3797,2.3855,0,0,0,0,0,0,2.382,2.382,2.3834,2.3812,2.381,2.3831,2.3785,2.3779,2.3778,2.3773,2.3754,2.3749,2.3727,2.3744,2.3745,2.3768,2.3717,2.379,2.3793,2.3796,2.385,2.3859,2.3866,0,0,0,0,0,2.382,2.3852,2.3835,2.3835,2.3827,2.3832,2.3831,2.3804,2.378,2.3794,2.3777,2.375,2.3766,2.3746,2.3747,2.3771,2.3788,2.3792,2.3796,2.3847,2.3857,2.3866,0,0,0,0,0,0,2.3877,2.3848,2.3829,2.3855,2.3846,2.3823,2.3839,2.3815,2.3814,2.3809,2.3775,2.3772,2.3794,2.3784,2.3763,2.3806,2.3772,2.3777,2.3811,2.3821,2.3828,2.383,2.3717,0,0,0,0,0,2.3893,2.3899,2.3874,2.3899,2.3895,2.3868,2.387,2.3849,2.3839,2.3835,2.382,2.3812,2.3815,2.3817,2.3819,2.3849,2.3844,2.3866,2.3874,2.388,2.3884,2.3899,2.3908,2.3811,2.3811,2.3811,0,0,2.3925,2.391,2.3916,2.391,2.3901,2.3908,2.3865,2.3875,2.3881,2.3837,2.3852,2.3841,2.383,2.3854,2.3864,2.3846,2.391,2.3885,2.3891,2.3891,2.3904,2.3913,2.3921,2.3814,2.3813,2.3813,0,0,2.3987,2.3976,2.3995,2.3987,2.3974,2.3956,2.3961,2.3941,2.3931,2.3946,2.3913,2.392,2.3926,2.3918,2.3916,2.3975,2.395,2.3977,2.4017,2.4032,2.404,2.4046,2.4067,2.4075,2.3981,2.3981,2.3981,0,2.4028,2.4038,2.4008,2.402,2.4018,2.3979,2.3998,2.3992,2.398,2.398,2.396,2.3967,2.3956,2.3978,2.3992,2.3992,2.3996,2.3978,2.4041,2.4047,2.4053,2.4072,2.408,2.3984,2.3984,2.3984,2.3983,0,2.4089,2.4097,2.4114,2.4102,2.4103,2.4118,2.4091,2.4095,2.4075,2.4059,2.4075,2.4061,2.4058,2.4062,2.4043,2.4081,2.4071,2.4047,2.4013,2.4066,2.4083,2.409,2.3989,2.3988,2.3987,2.3986,0,0,2.4185,2.4158,2.4164,2.4159,2.4142,2.4147,2.4161,2.4158,2.4161,2.4155,2.4166,2.4172,2.4149,2.4146,2.4126,2.4139,2.4186,2.4114,2.4113,2.4127,2.4227,2.4244,2.4253,2.417,2.4171,2.4172,2.4227,0,2.4242,2.4264,2.4238,2.4265,2.4271,2.4234,2.4246,2.4237,2.4223,2.4226,2.421,2.4214,2.4185,2.4183,2.4195,2.4178,2.4206,2.4174,2.4179,2.4179,2.4182,2.4262,2.428,2.4332,2.4234,2.4235,2.4236,0,2.4311,2.4308,2.4335,2.4316,2.4317,2.4329,2.4324,2.4328,2.4317,2.4305,2.4302,2.4278,2.429,2.4258,2.4274,2.4253,2.4254,2.4246,2.4248,2.4246,2.421,2.4262,2.4349,2.4356,2.4246,2.4246,2.4245,0,2.4377,2.4379,2.4396,2.4392,2.4371,2.4379,2.4371,2.4358,2.4358,2.4354,2.4354,2.4352,2.435,2.4349,2.4325,2.4304,2.4344,2.431,2.4335,2.4335,2.4344,2.4344,2.4431,2.4347,2.4346,2.4346,2.4346,0,2.4443,2.4461,2.4425,2.4435,2.4454,2.4425,2.4445,2.4432,2.4422,2.4429,2.4397,2.4405,2.4373,2.4377,2.4358,2.4374,2.4374,2.4365,2.436,2.4367,2.4368,2.4366,2.4362,2.4348,2.4348,2.4347,2.4347,0,2.452,2.4496,2.4512,2.449,2.4485,2.45,2.4481,2.449,2.4473,2.4483,2.4483,2.4458,2.4461,2.4437,2.4436,2.4424,2.4448,2.4437,2.4452,2.4448,2.4473,2.4471,2.4562,2.4572,2.4482,2.4483,2.4484,0,2.4562,2.4575,2.4555,2.4557,2.455,2.4554,2.4554,2.4526,2.4527,2.4515,2.4525,2.4526,2.4524,2.4531,2.4513,2.4512,2.45,2.4532,2.4499,2.4506,2.4499,2.4498,2.4499,2.4538,2.4539,2.454,2.4541,0,2.4641,2.4629,2.4629,2.4626,2.4626,2.4622,2.4616,2.462,2.4589,2.4592,2.4594,2.4593,2.4592,2.4593,2.4588,2.4579,2.4555,2.4552,2.4557,2.4564,2.4572,2.4567,2.4469,2.4549,2.4548,2.4548,2.4547,2.4547,2.4701,2.471,2.4697,2.4699,2.4691,2.4686,2.4693,2.4678,2.4679,2.4675,2.4659,2.4665,2.4653,2.4644,2.4638,2.4642,2.4627,2.4635,2.4637,2.4639,2.4643,2.4572,2.4641,2.4641,2.4641,2.4641,2.464,0,2.4777,2.4766,2.4768,2.476,2.4762,2.4739,2.4731,2.4734,2.4739,2.473,2.473,2.4733,2.4733,2.4715,2.4713,2.472,2.4709,2.4721,2.4719,2.4718,2.4657,2.4652,2.473,2.473,2.473,2.473,2.473,2.473,2.4816,2.4831,2.4817,2.4828,2.4818,2.4822,2.482,2.4815,2.4808,2.4813,2.4813,2.4801,2.4788,2.4786,2.4785,2.478,2.478,2.4796,2.4787,2.4731,2.4722,2.4714,2.4709,2.4796,2.4796,2.4846,2.4847,2.4847]}]]